GW0360 Weather Reports


Display with metric or nautical units.
time (UTC)temp
F
wind
direction
speed
MPH
gust
MPH
rain 1hr
in
rain 24hr
in
rain mn
in
humidity
%
barometer
mb
20260509031040 54 0 0.0 0.0 0.00 0.01 0.01 92 1009.5
20260509030541 54 0 0.0 0.0 0.00 0.01 0.01 91 1009.6
20260509025540 55 0 0.0 0.0 0.00 0.01 0.01 91 1009.4
20260509025041 55 0 0.0 0.0 0.00 0.01 0.01 91 1009.4
20260509024548 55 0 0.0 0.0 0.00 0.01 0.01 91 1009.4
20260509024043 56 0 0.0 0.0 0.00 0.01 0.01 91 1009.3
20260509023543 56 0 0.0 0.0 0.00 0.01 0.01 90 1009.2
20260509023050 56 0 0.0 0.0 0.00 0.01 0.01 90 1009.2
20260509022543 56 0 0.0 0.0 0.00 0.01 0.01 90 1009.2
20260509022043 57 0 0.0 0.0 0.00 0.01 0.01 90 1009.1
20260509021550 57 0 0.0 0.0 0.00 0.01 0.01 90 1009.0
20260509021042 57 0 0.0 0.0 0.00 0.01 0.01 89 1008.8
20260509020540 57 0 0.0 0.0 0.00 0.01 0.01 89 1009.0
20260509020052 57 0 0.0 0.0 0.00 0.01 0.01 89 1009.0
20260509015540 57 0 0.0 0.0 0.00 0.01 0.01 88 1008.8
20260509015044 58 0 0.0 0.0 0.00 0.01 0.01 88 1008.9
20260509014554 58 0 0.0 0.0 0.00 0.01 0.01 87 1008.8
20260509014043 58 0 0.0 0.0 0.00 0.01 0.01 87 1008.7
20260509013540 59 0 0.0 0.0 0.00 0.01 0.01 86 1008.6
20260509013108 59 0 0.0 0.0 0.00 0.01 0.01 85 1008.6
20260509012540 60 0 0.0 0.0 0.00 0.01 0.01 85 1008.6
20260509012042 60 0 0.0 0.0 0.00 0.01 0.01 84 1008.5
20260509011605 61 0 0.0 0.0 0.00 0.01 0.01 83 1008.4
20260509011040 61 0 0.0 0.0 0.00 0.01 0.01 82 1008.3
20260509010543 62 0 0.0 0.0 0.00 0.01 0.01 80 1008.4
20260509010053 62 0 0.0 0.0 0.00 0.01 0.01 79 1008.5
20260509005543 63 0 0.0 0.0 0.00 0.01 0.01 79 1008.4
20260509005044 63 0 0.0 0.0 0.00 0.01 0.01 78 1008.3
20260509004550 64 0 0.0 0.0 0.00 0.01 0.01 77 1008.3
20260509004045 64 0 0.0 0.0 0.00 0.01 0.01 76 1008.1
20260509003545 64 0 0.0 0.0 0.00 0.01 0.01 76 1008.3
20260509003111 64 0 0.0 0.0 0.00 0.01 0.01 76 1008.2
20260509002543 64 0 0.0 0.0 0.00 0.01 0.01 76 1008.3
20260509002040 65 0 0.0 0.0 0.00 0.01 0.01 75 1008.2
20260509001546 65 0 0.0 3.0 0.00 0.01 0.01 75 1008.2
20260509001042 65 0 0.0 3.0 0.00 0.01 0.01 75 1008.2
20260509000542 65 0 0.0 4.0 0.00 0.01 0.01 74 1008.2
20260509000107 65 0 0.0 5.0 0.00 0.01 0.01 73 1008.1
20260508235540 66 322 0.0 5.0 0.00 0.01 0.01 73 1008.2
20260508235041 66 0 1.0 5.0 0.00 0.01 0.01 72 1008.3
20260508234553 66 274 0.0 2.0 0.00 0.01 0.01 72 1008.2
20260508234042 66 0 0.0 4.0 0.00 0.01 0.01 73 1008.2
20260508233541 66 0 0.0 4.0 0.00 0.01 0.01 72 1008.2
20260508233051 66 277 0.0 4.0 0.00 0.01 0.01 72 1008.1
20260508232540 66 240 1.0 3.0 0.00 0.01 0.01 72 1008.1
20260508232041 66 193 0.0 3.0 0.00 0.01 0.01 72 1008.2
20260508231555 66 302 0.0 3.0 0.00 0.01 0.01 72 1008.2
20260508231041 66 0 0.0 3.0 0.00 0.01 0.01 72 1008.2
20260508230540 66 317 1.0 3.0 0.00 0.01 0.01 72 1008.5
20260508230056 67 0 0.0 4.0 0.00 0.01 0.01 71 1008.5
20260508225540 67 0 0.0 7.0 0.00 0.01 0.01 71 1008.3
20260508225041 67 0 0.0 7.0 0.00 0.01 0.01 70 1008.4
20260508224602 67 259 0.0 3.0 0.00 0.01 0.01 71 1008.4
20260508224040 67 0 0.0 3.0 0.00 0.01 0.01 70 1008.4
20260508223541 67 266 0.0 3.0 0.00 0.01 0.01 71 1008.4
20260508223051 66 300 0.0 2.0 0.00 0.01 0.01 73 1008.3
20260508222540 65 0 0.0 3.0 0.00 0.01 0.01 73 1008.3
20260508222043 65 0 0.0 4.0 0.00 0.01 0.01 73 1008.3
20260508221554 66 178 1.0 4.0 0.01 0.01 0.01 74 1008.3
20260508221041 65 0 0.0 3.0 0.01 0.01 0.01 78 1008.2
20260508220541 64 0 1.0 3.0 0.01 0.01 0.01 79 1008.3
20260508220053 63 203 0.0 2.0 0.01 0.01 0.01 80 1008.2
20260508215540 62 0 0.0 2.0 0.01 0.01 0.01 81 1008.1
20260508215043 62 0 0.0 2.0 0.01 0.01 0.01 80 1008.0
20260508214554 62 0 0.0 2.0 0.01 0.01 0.01 81 1008.0
20260508214041 63 0 0.0 2.0 0.01 0.01 0.01 82 1008.2
20260508213540 63 0 0.0 3.0 0.01 0.01 0.01 85 1008.0
20260508213048 61 0 0.0 7.0 0.01 0.01 0.01 84 1007.8
20260508212542 61 109 1.0 7.0 0.01 0.01 0.01 84 1007.7
20260508212042 61 98 1.0 4.0 0.01 0.01 0.01 85 1007.7
20260508211550 60 113 0.0 4.0 0.00 0.00 0.00 85 1008.0
20260508211045 60 97 1.0 4.0 0.00 0.00 0.00 84 1008.5
20260508210545 60 0 0.0 2.0 0.00 0.00 0.00 85 1008.8
20260508210050 60 0 0.0 2.0 0.00 0.00 0.00 83 1009.0
20260508205544 60 0 0.0 2.0 0.00 0.00 0.00 83 1009.1
20260508205044 60 0 0.0 2.0 0.00 0.00 0.00 82 1009.3
20260508204552 60 0 0.0 2.0 0.00 0.00 0.00 81 1009.4
20260508204043 61 0 0.0 2.0 0.00 0.00 0.00 82 1009.4
20260508203543 62 0 0.0 3.0 0.00 0.00 0.00 81 1009.5
20260508203053 62 0 0.0 3.0 0.00 0.00 0.00 82 1009.5
20260508202544 62 311 0.0 5.0 0.00 0.00 0.00 80 1009.6
20260508202043 62 0 0.0 5.0 0.00 0.00 0.00 79 1009.5
20260508201600 62 0 0.0 3.0 0.00 0.00 0.00 79 1009.7
20260508201044 63 0 0.0 2.0 0.00 0.00 0.00 80 1009.8
20260508200544 63 0 0.0 2.0 0.00 0.00 0.00 79 1009.9
20260508195546 63 0 0.0 1.0 0.00 0.00 0.00 78 1009.7
20260508195045 63 0 0.0 1.0 0.00 0.00 0.00 78 1009.8
20260508194551 63 0 0.0 1.0 0.00 0.00 0.00 77 1009.8
20260508194043 63 0 0.0 1.0 0.00 0.00 0.00 77 1010.0
20260508193543 63 0 0.0 1.0 0.00 0.00 0.00 76 1010.0
20260508193100 63 0 0.0 1.0 0.00 0.00 0.00 76 1010.0
20260508192547 63 0 0.0 1.0 0.00 0.00 0.00 77 1009.8
20260508192044 63 0 0.0 1.0 0.00 0.00 0.00 76 1009.6
20260508191551 63 0 0.0 1.0 0.00 0.00 0.00 77 1009.7
20260508191043 63 0 0.0 1.0 0.00 0.00 0.00 76 1009.8
20260508190547 63 0 0.0 2.0 0.00 0.00 0.00 75 1009.7
20260508190057 63 0 0.0 2.0 0.00 0.00 0.00 73 1009.5
20260508185547 63 0 0.0 2.0 0.00 0.00 0.00 72 1009.4
20260508185043 63 0 0.0 1.0 0.00 0.00 0.00 71 1009.1
20260508184603 63 0 0.0 3.0 0.00 0.00 0.00 72 1008.8
20260508184045 63 0 0.0 4.0 0.00 0.00 0.00 71 1008.9
20260508183545 63 210 0.0 5.0 0.00 0.00 0.00 72 1009.2
20260508183103 63 207 1.0 6.0 0.00 0.00 0.00 72 1009.2
20260508182546 63 213 1.0 6.0 0.00 0.00 0.00 72 1009.2
20260508182046 63 196 1.0 6.0 0.00 0.00 0.00 72 1009.2
20260508181554 63 227 0.0 6.0 0.00 0.00 0.00 71 1009.2
20260508181045 63 0 1.0 6.0 0.00 0.00 0.00 71 1009.2
20260508180543 63 185 0.0 2.0 0.00 0.00 0.00 72 1009.0
20260508180121 63 0 0.0 2.0 0.00 0.00 0.00 71 1009.2
20260508175544 63 0 0.0 2.0 0.00 0.00 0.00 71 1009.0
20260508175044 63 0 0.0 5.0 0.00 0.00 0.00 70 1009.0
20260508174605 63 0 1.0 5.0 0.00 0.00 0.00 70 1009.5
20260508174043 63 0 1.0 4.0 0.00 0.00 0.00 69 1009.5
20260508173544 63 0 0.0 3.0 0.00 0.00 0.00 69 1009.4
20260508173050 63 0 0.0 3.0 0.00 0.00 0.00 69 1009.0
20260508172545 63 0 0.0 1.0 0.00 0.00 0.00 68 1009.0
20260508172043 63 0 0.0 1.0 0.00 0.00 0.00 67 1009.1
20260508171558 63 0 0.0 6.0 0.00 0.00 0.00 66 1009.4
20260508171051 63 0 1.0 6.0 0.00 0.00 0.00 66 1009.3
20260508170547 63 0 3.0 6.0 0.00 0.00 0.00 65 1009.7
20260508170057 63 0 1.0 6.0 0.00 0.00 0.00 66 1009.6
20260508165543 64 243 2.0 6.0 0.00 0.00 0.00 66 1009.7
20260508165043 64 179 2.0 6.0 0.00 0.00 0.00 67 1009.5
20260508164553 63 0 1.0 4.0 0.00 0.00 0.00 65 1009.3
20260508164044 64 0 0.0 3.0 0.00 0.00 0.00 66 1009.6
20260508163543 63 165 0.0 5.0 0.00 0.00 0.00 67 1009.8
20260508163114 63 0 0.0 6.0 0.00 0.00 0.00 66 1009.6
20260508162544 63 0 0.0 6.0 0.00 0.00 0.00 68 1010.0
20260508162040 63 0 2.0 7.0 0.00 0.00 0.00 67 1010.1
20260508161556 63 229 1.0 8.0 0.00 0.00 0.00 65 1009.9
20260508161043 63 183 4.0 8.0 0.00 0.00 0.00 66 1010.2
20260508160544 62 167 0.0 2.0 0.00 0.00 0.00 66 1009.6
20260508160055 62 0 0.0 1.0 0.00 0.00 0.00 68 1009.3
20260508155543 62 88 0.0 0.0 0.00 0.00 0.00 67 1009.3
20260508155047 62 0 0.0 0.0 0.00 0.00 0.00 68 1009.4
20260508154555 62 0 0.0 1.0 0.00 0.00 0.00 67 1009.6
20260508154044 62 0 0.0 5.0 0.00 0.00 0.00 65 1009.7
20260508153545 62 0 2.0 6.0 0.00 0.00 0.00 64 1010.0
20260508153057 62 206 2.0 6.0 0.00 0.00 0.00 63 1010.1
20260508152544 62 183 3.0 6.0 0.00 0.00 0.00 63 1010.0
20260508152044 62 207 2.0 6.0 0.00 0.00 0.00 64 1010.1
20260508151551 62 0 1.0 7.0 0.00 0.00 0.00 63 1010.0
20260508151046 62 215 1.0 7.0 0.00 0.00 0.00 64 1010.0
20260508150544 62 0 1.0 5.0 0.00 0.00 0.00 64 1009.8
20260508150052 62 0 0.0 5.0 0.00 0.00 0.00 64 1009.7
20260508145545 61 0 0.0 2.0 0.00 0.00 0.00 65 1009.9
20260508145046 61 0 0.0 2.0 0.00 0.00 0.00 66 1009.7
20260508144555 61 0 0.0 1.0 0.00 0.00 0.00 66 1009.7
20260508144043 61 0 0.0 1.0 0.00 0.00 0.00 66 1009.8
20260508143544 61 0 0.0 1.0 0.00 0.00 0.00 65 1009.7
20260508143052 61 0 0.0 1.0 0.00 0.00 0.00 65 1009.7
20260508142542 61 0 0.0 2.0 0.00 0.00 0.00 65 1009.6
20260508142045 60 0 0.0 3.0 0.00 0.00 0.00 66 1009.7
20260508141555 60 0 0.0 3.0 0.00 0.00 0.00 65 1009.7
20260508141043 60 237 0.0 3.0 0.00 0.00 0.00 65 1009.6
20260508140544 60 231 0.0 4.0 0.00 0.00 0.00 64 1009.6
20260508140054 60 0 0.0 4.0 0.00 0.00 0.00 64 1009.6
20260508135544 60 209 1.0 8.0 0.00 0.00 0.00 63 1009.5
20260508135043 60 0 1.0 8.0 0.00 0.00 0.00 63 1009.4
20260508134600 60 194 3.0 8.0 0.00 0.00 0.00 62 1009.4
20260508134044 60 0 2.0 7.0 0.00 0.00 0.00 63 1009.5
20260508133548 60 0 3.0 7.0 0.00 0.00 0.00 62 1009.5
20260508133059 60 201 2.0 7.0 0.00 0.00 0.00 62 1009.4
20260508132545 60 0 2.0 7.0 0.00 0.00 0.00 62 1009.5
20260508132043 60 193 3.0 6.0 0.00 0.00 0.00 62 1009.5
20260508131556 60 246 3.0 8.0 0.00 0.00 0.00 61 1009.5
20260508131044 60 208 2.0 8.0 0.00 0.00 0.00 61 1009.5
20260508130543 60 209 2.0 8.0 0.00 0.00 0.00 61 1009.5
20260508130106 60 0 2.0 9.0 0.00 0.00 0.00 61 1009.6
20260508125544 59 187 1.0 9.0 0.00 0.00 0.00 61 1009.5
20260508125046 59 219 2.0 9.0 0.00 0.00 0.00 62 1009.5
20260508124554 59 225 2.0 7.0 0.00 0.00 0.00 62 1009.4
20260508124045 59 191 2.0 7.0 0.00 0.00 0.00 62 1009.4
20260508123543 59 198 2.0 6.0 0.00 0.00 0.00 62 1009.4
20260508123049 59 201 1.0 3.0 0.00 0.00 0.00 62 1009.3
20260508122543 59 0 0.0 5.0 0.00 0.00 0.00 62 1009.3
20260508122043 59 0 0.0 8.0 0.00 0.00 0.00 62 1009.5
20260508121551 59 0 1.0 8.0 0.00 0.00 0.00 62 1009.4
20260508121042 58 218 3.0 8.0 0.00 0.00 0.00 62 1009.1
20260508120545 58 222 1.0 5.0 0.00 0.00 0.00 62 1009.1
20260508120056 58 0 0.0 7.0 0.00 0.00 0.00 62 1009.1
20260508115544 58 317 2.0 12.0 0.00 0.00 0.00 62 1009.1
20260508115042 58 227 4.0 12.0 0.00 0.00 0.00 61 1008.9
20260508114551 58 176 4.0 10.0 0.00 0.00 0.00 61 1008.8
20260508114043 58 210 2.0 11.0 0.00 0.00 0.00 62 1008.8
20260508113544 58 244 3.0 11.0 0.00 0.00 0.00 61 1008.7
20260508113100 58 196 3.0 11.0 0.00 0.00 0.00 61 1008.8
20260508112543 58 147 5.0 13.0 0.00 0.00 0.00 61 1008.9
20260508112044 58 207 4.0 13.0 0.00 0.00 0.00 60 1008.9
20260508111549 59 188 3.0 7.0 0.00 0.00 0.00 60 1008.9
20260508111044 59 242 2.0 10.0 0.00 0.00 0.00 60 1009.1
20260508110541 59 203 4.0 10.0 0.00 0.00 0.00 60 1008.9
20260508110112 58 128 4.0 10.0 0.00 0.00 0.00 60 1008.9
20260508105543 58 181 3.0 10.0 0.00 0.00 0.00 60 1009.0
20260508105043 58 248 3.0 10.0 0.00 0.00 0.00 61 1009.0
20260508104557 58 221 1.0 7.0 0.00 0.00 0.00 62 1008.9
20260508104046 58 203 2.0 7.0 0.00 0.00 0.00 61 1009.1
20260508103544 58 186 3.0 9.0 0.00 0.00 0.00 61 1009.0
20260508103047 58 178 3.0 9.0 0.00 0.00 0.00 61 1009.1
20260508102543 58 207 2.0 12.0 0.00 0.00 0.00 61 1009.2
20260508102044 58 207 4.0 12.0 0.00 0.00 0.00 61 1009.4
20260508101556 58 182 3.0 8.0 0.00 0.00 0.00 62 1009.4
20260508101044 58 209 3.0 9.0 0.00 0.00 0.00 61 1009.3
20260508100540 58 221 3.0 9.0 0.00 0.00 0.00 62 1009.2
20260508100051 58 192 2.0 9.0 0.00 0.00 0.00 62 1009.1
20260508095545 58 194 3.0 9.0 0.00 0.00 0.00 62 1009.4
20260508095041 58 144 2.0 9.0 0.00 0.00 0.00 62 1009.1
20260508094555 58 223 3.0 7.0 0.00 0.00 0.00 62 1009.3
20260508094043 58 210 2.0 7.0 0.00 0.00 0.00 62 1009.2
20260508093545 57 142 1.0 6.0 0.00 0.00 0.00 63 1009.2
20260508093101 57 191 2.0 5.0 0.00 0.00 0.00 63 1009.0
20260508092542 57 213 1.0 4.0 0.00 0.00 0.00 64 1009.0
20260508092043 57 0 0.0 4.0 0.00 0.00 0.00 64 1008.9
20260508091556 57 0 0.0 3.0 0.00 0.00 0.00 63 1009.1
20260508091044 57 209 0.0 6.0 0.00 0.00 0.00 63 1009.2
20260508090544 58 0 2.0 6.0 0.00 0.00 0.00 62 1009.2
20260508090108 57 194 0.0 5.0 0.00 0.00 0.00 63 1009.2
20260508085546 58 0 1.0 6.0 0.00 0.00 0.00 62 1009.3
20260508085043 58 200 2.0 6.0 0.00 0.00 0.00 61 1009.3
20260508084552 58 165 2.0 6.0 0.00 0.00 0.00 61 1009.2
20260508084046 58 208 2.0 6.0 0.00 0.00 0.00 61 1009.0
20260508083548 58 0 1.0 6.0 0.00 0.00 0.00 60 1009.2
20260508083049 59 217 1.0 6.0 0.00 0.00 0.00 60 1009.2
20260508082543 59 169 0.0 6.0 0.00 0.00 0.00 59 1009.1
20260508082041 59 190 1.0 4.0 0.00 0.00 0.00 59 1009.3
20260508081558 60 221 1.0 7.0 0.00 0.00 0.00 58 1009.2
20260508081042 60 0 1.0 9.0 0.00 0.00 0.00 57 1009.3
20260508080541 60 156 2.0 9.0 0.00 0.00 0.00 57 1009.3
20260508080051 60 224 2.0 9.0 0.00 0.00 0.00 57 1009.4
20260508075541 60 119 3.0 9.0 0.00 0.00 0.00 57 1009.4
20260508075044 60 166 2.0 7.0 0.00 0.00 0.00 57 1009.4
20260508074550 60 209 2.0 7.0 0.00 0.00 0.00 57 1009.5
20260508074044 60 177 2.0 9.0 0.00 0.00 0.00 57 1009.6
20260508073541 60 192 3.0 9.0 0.00 0.00 0.00 57 1009.7
20260508073102 60 220 4.0 9.0 0.00 0.00 0.00 57 1009.8
20260508072543 60 206 2.0 5.0 0.00 0.00 0.00 57 1009.9
20260508072040 61 182 2.0 6.0 0.00 0.00 0.00 57 1010.0
20260508071547 61 0 1.0 7.0 0.00 0.00 0.00 56 1010.1
20260508071041 61 171 2.0 7.0 0.00 0.00 0.00 56 1010.1
20260508070544 61 182 2.0 8.0 0.00 0.00 0.00 55 1010.2
20260508070054 61 0 3.0 8.0 0.00 0.00 0.00 54 1010.2
20260508065540 62 216 2.0 9.0 0.00 0.00 0.00 54 1010.3
20260508065041 62 236 3.0 9.0 0.00 0.00 0.00 54 1010.3
20260508064550 62 171 2.0 8.0 0.00 0.00 0.00 53 1010.3
20260508064041 62 0 2.0 9.0 0.00 0.00 0.00 52 1010.4
20260508063541 62 171 2.0 10.0 0.00 0.00 0.00 52 1010.6
20260508063054 62 159 4.0 11.0 0.00 0.00 0.00 52 1010.6
20260508062540 62 156 4.0 11.0 0.00 0.00 0.00 53 1010.7
20260508062041 62 157 3.0 10.0 0.00 0.00 0.00 53 1010.7
20260508061551 62 216 4.0 9.0 0.00 0.00 0.00 54 1010.9
20260508061042 62 175 2.0 8.0 0.00 0.00 0.00 54 1010.8
20260508060541 62 201 2.0 9.0 0.00 0.00 0.00 54 1011.3
20260508060056 62 186 3.0 9.0 0.00 0.00 0.00 54 1011.3
20260508055545 62 203 2.0 9.0 0.00 0.00 0.00 54 1011.4
20260508055041 62 242 2.0 7.0 0.00 0.00 0.00 54 1011.3
20260508054635 62 209 3.0 8.0 0.00 0.00 0.00 55 1011.4
20260508054042 62 251 3.0 10.0 0.00 0.00 0.00 55 1011.3
20260508053543 62 236 3.0 12.0 0.00 0.00 0.00 56 1011.3
20260508053048 62 183 4.0 12.0 0.00 0.00 0.00 56 1011.0
20260508052546 62 189 4.0 12.0 0.00 0.00 0.00 56 1011.0
20260508052040 61 139 4.0 11.0 0.00 0.00 0.00 56 1010.8
20260508051550 61 208 4.0 11.0 0.00 0.00 0.00 57 1010.8
20260508051041 61 190 3.0 10.0 0.00 0.00 0.00 57 1010.8
20260508050544 61 223 4.0 9.0 0.00 0.00 0.00 58 1010.8
20260508050054 60 194 1.0 8.0 0.00 0.00 0.00 59 1010.8
20260508045543 60 215 1.0 9.0 0.00 0.00 0.00 59 1010.8
20260508045043 60 165 3.0 9.0 0.00 0.00 0.00 59 1010.9
20260508044557 60 159 1.0 5.0 0.00 0.00 0.00 59 1011.0
20260508044043 61 0 1.0 5.0 0.00 0.00 0.00 59 1010.9
20260508043543 61 175 1.0 5.0 0.00 0.00 0.00 59 1011.0
20260508043049 61 172 2.0 9.0 0.00 0.00 0.00 58 1011.1
20260508042543 61 155 2.0 9.0 0.00 0.00 0.00 58 1011.0
20260508042045 61 190 2.0 9.0 0.00 0.00 0.00 58 1010.8
20260508041557 61 232 1.0 9.0 0.00 0.00 0.00 58 1010.8
20260508041040 61 0 2.0 10.0 0.00 0.00 0.00 57 1010.9
20260508040543 61 0 2.0 10.0 0.00 0.00 0.00 57 1010.9
20260508040057 62 187 2.0 8.0 0.00 0.00 0.00 57 1010.9
20260508035543 62 202 2.0 8.0 0.00 0.00 0.00 57 1010.8
20260508035041 62 165 2.0 7.0 0.00 0.00 0.00 56 1011.0
20260508034553 62 202 3.0 7.0 0.00 0.00 0.00 56 1010.9
20260508034041 62 219 2.0 6.0 0.00 0.00 0.00 55 1010.8
20260508033543 63 206 2.0 8.0 0.00 0.00 0.00 54 1010.9
20260508033048 62 168 2.0 9.0 0.00 0.00 0.00 55 1010.8
20260508032548 62 213 3.0 9.0 0.00 0.00 0.00 56 1010.6
20260508032044 62 0 2.0 10.0 0.00 0.00 0.00 56 1010.7
20260508031558 62 182 2.0 10.0 0.00 0.00 0.00 56 1010.8